GFSFLT1_prec_radar_183.txt.gz
Reflectivity
-20 -20 -20 -20 -20 -20 -20 -20 -3 4 -20 -20 -20 -7 -16 -9 -5 -20 -20 -14 -4 3 -20 -20 -20 -20 -19 -20 -20 -20 -20 -20
-20 -20 -20 -20 -20 -20 -20 -20 -20 6 -20 -20 -20 -20 -20 -10 -20 3 -20 -20 2 -20 -20 -20 -20 -20 -20 -20 -20 -20 -20 -20
-20 -20 -20 -20 -20 -20 -20 -20 -20 -20 -20 -20 -20 -20 -20 -19 -20 -20 -9 2 1 -20 -20 -20 -20 -20 -0 -20 -20 -20 -20 -20
-20 -20 -20 -20 -20 -20 -20 -20 -20 -20 -20 -20 -20 -12 -16 -19 -3 -11 1 6 12 -20 -20 -20 -20 0 -12 -11 -17 -13 -20 -20
-20 -20 -20 -20 -20 -20 -20 -20 -20 -20 -17 -6 -20 -20 -20 -20 -18 -18 -20 -17 9 -20 -1 -20 -20 29 16 -20 -20 -7 -20 -20
-20 -20 -20 -20 -20 -20 -20 -19 -20 -20 -17 11 -16 -20 17 0 18 17 -20 -20 -4 -20 -18 -20 -10 -8 24 -7 -20 -20 -20 -20
-20 -20 -20 -20 -20 -20 -20 -20 -20 -20 -20 4 7 -15 -20 -20 -15 6 -11 -20 -18 -15 10 3 6 32 2 -20 -20 -13 -20 -20
-20 -20 -20 -20 -20 -20 -20 -20 -20 -20 -20 -20 -17 -2 11 -20 20 20 10 -20 -20 -11 16 23 19 15 -9 -20 -20 -20 -20 -20
-20 -20 -20 -20 -20 -20 -20 -20 -20 -20 -20 -20 -20 -9 12 17 23 22 28 -7 -15 16 6 27 33 12 15 -3 -20 0 -20 -20
-20 -20 -20 -20 -20 -20 -20 -20 -20 -20 -20 -20 -20 6 11 14 19 25 28 -15 -1 14 10 30 31 14 21 -13 10 -9 -19 -20
-20 -20 -20 -20 -20 -20 -14 8 -20 -20 -20 -20 -18 11 14 17 22 23 23 1 20 29 31 34 29 21 6 -10 -7 12 -12 9
-20 -5 -9 -20 -20 -20 -20 -20 12 -3 -19 12 17 -9 -4 15 20 20 27 22 29 33 25 33 35 24 21 15 -8 4 12 16
0 15 28 22 3 -20 -20 5 6 16 12 13 -1 -19 -18 4 19 22 25 32 31 36 20 32 30 34 30 16 10 3 7 25
17 8 9 5 19 14 -16 12 21 26 23 22 15 22 15 21 24 25 26 27 43 32 34 31 30 22 10 -20 2 -8 -12 -7
10 14 10 -10 13 36 33 13 17 19 28 26 21 22 21 25 22 16 21 18 33 40 33 22 15 5 -6 -0 -3 -15 -20 -20
5 8 -10 -2 -7 26 25 37 29 9 5 13 25 24 20 15 16 15 7 20 23 28 18 17 14 7 10 17 9 -20 -20 -20
-20 7 -20 -20 -20 6 13 20 33 38 20 8 16 20 18 17 13 23 33 31 33 21 14 13 5 -9 -15 9 -19 -20 -20 -20
-20 -16 -20 -20 -20 -1 14 11 15 32 37 31 21 26 27 28 27 24 26 31 33 26 14 11 8 -20 -20 -19 -20 -20 -20 -20
-20 -20 -20 -20 -20 -20 1 15 9 -9 17 27 33 36 36 34 29 26 26 26 11 15 10 -0 -17 -19 4 -18 -6 2 -17 -20

GFSFLT1_prec_radar_186.txt.gz
Reflectivity
-20 -20 -20 -20 -20 -20 -20 -20 -15 5 -20 -10 12 -20 -20 -17 -8 -20 -20 -20 -20 -20 -20 -9 -20 -20 -20 -20 -20 -20 -20 -20
-20 -20 -20 -20 -20 -20 -20 -20 -20 -20 -20 -20 -3 -10 -20 -13 15 22 -18 -20 -20 -20 -20 -20 -20 -20 -20 -20 -20 -20 -20 -20
-20 -20 -20 -20 -20 -20 -20 -20 -20 -20 -20 -20 -20 -13 -15 -5 16 5 18 -19 3 -20 -20 -20 -20 -20 -20 -20 -20 -20 -20 -20
-20 -20 -20 -20 -20 -20 -20 -20 -20 -20 -20 -20 -20 -2 19 19 14 -8 -10 -19 9 -20 -20 18 -4 -20 -20 -20 -20 -12 9 -10
-20 -20 -20 -20 -20 -20 -20 -20 -20 -20 -20 -20 -20 -15 -6 -4 7 -17 -13 13 7 1 -19 -11 -12 -20 -20 -20 -19 -18 32 -10
-20 -20 -20 -20 -20 -20 -20 -20 -20 -20 -20 -20 -20 -20 -20 -20 2 -18 -19 23 20 21 -20 0 12 -7 -20 -20 -20 3 25 20
-20 -20 -20 -20 -20 -20 -20 -20 -20 -20 -20 -20 -20 -20 -20 -2 -13 9 12 -12 0 20 -20 -20 -15 12 -2 -18 -2 -16 11 27
-20 -20 -20 -20 -20 -20 -20 -20 -20 -15 -20 -20 -20 -20 -20 -20 -20 -18 16 9 18 20 -20 -20 1 19 17 3 -16 -7 32 22
-20 -20 -20 -20 -20 -20 -20 -20 -20 -17 -20 -20 -20 -20 -20 -20 -20 -20 10 23 17 24 15 20 18 7 22 10 -2 23 36 16
-20 -20 -20 -20 -20 -20 -20 -20 -2 -7 1 -20 -1 -20 -20 -20 -20 -17 6 24 18 14 -14 20 39 10 2 9 4 27 28 17
-20 -20 -20 -20 -20 -20 -8 -20 -16 16 15 -15 1 -14 -20 -20 -19 -17 -6 19 12 27 -3 28 17 17 32 11 14 15 12 15
-20 -20 -20 -20 -20 -9 -2 5 -19 -18 16 24 14 7 16 2 -4 7 14 16 25 26 32 27 36 25 20 17 22 30 33 27
-20 -20 -17 -10 -20 -10 -1 17 29 -7 18 13 7 14 10 20 9 23 19 18 22 23 30 7 27 29 34 37 26 22 30 24
-20 -20 -20 -20 -7 14 12 12 2 34 17 22 21 16 17 27 22 21 22 21 24 22 21 27 36 22 41 33 32 28 27 36
-20 -20 -20 -20 3 8 11 -1 23 36 33 32 22 25 28 32 28 26 23 26 21 26 21 25 15 35 32 34 19 28 30 25
-20 -17 -20 -20 -20 13 -5 4 31 38 39 32 27 25 26 25 24 23 24 19 19 21 18 25 28 4 30 21 13 10 10 -10
-20 8 -20 -20 -20 8 -6 -11 22 30 36 39 28 32 26 24 26 23 22 22 20 31 23 8 19 17 11 5 6 -0 3 7
-20 -20 -20 3 -20 -10 5 -20 -11 19 25 35 36 39 40 35 25 25 29 24 23 28 20 14 23 20 15 13 10 10 12 8
-15 10 1 8 -20 -20 -20 -16 -20 16 6 17 34 40 33 33 35 31 31 27 25 31 31 36 32 24 15 -1 -12 4 -9 -9

GFSFLT1_prec_radar_189.txt.gz
Reflectivity
-20 -20 -20 -20 -20 -20 -20 -20 -20 -6 -2 -1 21 22 14 7 7 12 27 9 -2 -18 -20 -20 -20 -20 -20 -20 -20 -20 -20 -20
-20 -20 -20 -20 -20 -20 -20 -20 -20 -20 2 -20 15 9 4 -5 10 18 5 17 -3 -13 -20 -20 -20 -20 -20 -20 -20 -20 -20 -20
-20 -20 -20 -20 -20 -20 -20 -20 -20 -16 -20 -20 -19 -17 -20 -20 -20 12 11 18 18 20 -10 -16 -20 -20 -20 -20 -20 -20 -20 -20
-20 -20 -20 -20 -20 -20 -20 -20 -20 -20 -20 -20 -20 -1 4 -11 -20 -11 9 4 20 21 22 21 -1 -20 -18 7 -17 -20 -20 -11
-20 -20 -20 -20 -20 -20 -20 -20 -20 -20 -13 -20 -20 -18 -14 -12 -19 -20 -20 -5 0 19 20 8 25 19 -9 -3 -14 -20 -20 -18
-20 -20 -20 -20 -20 -20 -20 -20 -20 -20 -20 -8 -20 -20 -20 -19 -20 -20 -20 -20 -16 20 14 13 16 22 18 -19 12 11 -18 -20
-20 -20 -20 -20 -20 -20 -20 -20 -20 -20 -20 18 10 -20 -20 13 10 -20 -20 -20 -20 -16 14 11 -7 18 7 20 -20 5 -7 -20
-20 -20 -20 -20 -20 -20 -20 -20 -20 -20 -20 -20 20 10 12 -10 -4 8 -20 -19 -20 -20 -14 23 24 4 19 -8 12 2 10 -20
-20 -20 -20 -20 -20 -20 -20 -20 -20 -20 -20 -20 -20 26 18 0 5 6 17 -3 3 -3 -6 0 21 22 -18 9 16 4 -3 12
-20 -20 -20 -20 -20 -20 -20 -20 -20 -20 -20 -20 -20 -20 28 16 3 10 3 3 -7 23 7 20 11 23 -19 8 16 35 16 18
-20 -20 -20 -20 -20 -20 -20 -20 -20 -20 -20 -20 -20 -20 20 24 19 19 12 15 10 19 23 14 22 28 -19 19 8 13 29 8
-20 -20 -20 -20 -20 -20 -20 -20 -20 -20 -20 10 12 -20 17 31 28 16 25 21 12 17 27 24 25 30 10 -2 18 24 24 -0
-20 -20 -20 -20 -20 -20 -20 -20 -20 -20 3 16 20 24 27 25 32 26 27 18 24 17 26 20 23 27 19 9 28 35 19 9
-20 -20 -20 -20 -20 -20 -20 -20 -20 -20 -9 15 6 28 22 25 29 23 28 27 21 20 24 18 29 24 35 30 41 32 33 32
-20 -20 -20 -20 -20 -20 -20 -20 -20 -9 10 14 11 32 29 16 25 31 27 25 27 25 19 26 21 26 27 26 28 27 41 25
-20 -20 -20 -20 -20 -20 -20 -20 -20 -20 2 3 21 35 34 29 24 27 25 23 24 21 23 25 23 21 30 22 29 32 25 9
-20 -20 -20 -20 -20 -20 -20 -20 1 -20 5 -0 19 32 35 34 24 28 27 25 20 25 26 25 25 21 32 34 29 26 12 3
-20 -20 -20 -12 -1 -4 -20 -13 -8 -20 2 13 16 35 34 34 33 30 26 37 31 29 31 30 29 31 32 27 25 16 3 5
-20 -20 -20 4 -17 -20 -20 11 -12 -20 -7 2 17 33 36 36 33 32 38 38 38 38 32 36 35 37 37 27 22 20 17 8

GFSFLT1_prec_radar_192.txt.gz
Reflectivity
-20 -20 -20 -20 -20 -20 -20 -20 -20 -20 -20 -20 -10 -20 3 -8 19 16 -20 18 -20 8 14 -17 -18 -20 -20 -20 -20 -20 -20 -17
-20 -20 -20 -20 -20 -20 -20 -20 -20 -20 -20 -20 -14 -12 -8 14 -2 17 22 18 -18 8 5 13 21 -20 -20 -20 -20 -20 -20 -20
-20 -20 -20 -20 -20 -20 -20 -20 -20 -20 16 6 -20 -20 -20 -20 15 -10 8 2 15 -7 16 12 17 -15 4 -20 -20 -20 -20 -20
-20 -20 -20 -20 -20 -20 -20 -20 -20 -20 -20 19 20 -20 2 -11 -20 5 5 12 5 21 17 23 16 27 14 1 -18 -20 -20 -20
-20 -20 -20 -20 -20 -20 -20 -20 -20 -20 -20 -20 16 10 -20 -20 -20 -20 -20 -19 5 19 10 17 17 20 19 18 -20 -20 -20 -18
-20 -20 -20 -20 -20 -20 -20 -20 -20 -20 -20 -20 -20 -20 24 20 -19 -20 -20 -20 -15 22 11 22 20 13 21 13 19 -20 -20 10
-20 -20 -20 -20 -20 -20 -20 -20 -20 -20 -20 -20 -20 -20 -20 -18 27 20 -17 -15 2 13 18 21 22 19 16 19 14 3 -20 3
-20 -20 -20 -20 -20 -20 -20 -20 -20 -20 -20 -20 -20 -20 -20 -20 -20 -8 30 5 -15 0 25 12 28 16 12 16 27 24 -6 5
-20 -20 -20 -20 -20 -20 -20 -20 -20 -20 -20 -20 -20 -20 -20 -20 -20 -20 -0 23 17 -20 -3 19 7 25 21 5 26 23 13 -12
-20 -20 -20 -20 -20 -20 -20 -20 -20 -20 -20 -20 -20 -20 -20 -20 -20 -20 -20 4 13 18 20 19 12 11 19 27 18 30 20 -9
-20 -20 -20 -20 -20 -20 -20 -20 -20 -20 -20 -20 -20 -20 -20 -20 -20 -20 -20 5 18 9 24 26 23 16 17 18 31 13 28 11
-20 -20 -20 -20 -20 -20 -20 -20 -20 -20 -20 -20 -20 -20 -9 -20 -20 -20 -18 9 10 26 31 21 27 16 16 27 23 28 23 15
-20 -20 -20 -20 -20 -20 -20 -20 -20 -20 -20 -20 -20 -20 -20 -20 -20 -20 7 15 32 31 27 31 20 17 24 25 26 25 28 18
-20 -20 -20 -20 -20 -20 -20 -20 -20 -20 -19 -20 -20 -20 -20 -20 -10 -9 3 24 36 43 38 31 9 21 10 29 27 28 27 20
-20 -20 -20 -20 -20 -20 -20 -20 -20 -20 -19 -20 -20 -20 -20 -6 1 -4 -12 26 37 44 43 37 24 28 24 26 32 26 25 25
-20 -20 -20 -20 -20 -20 -20 -20 -20 -20 -20 -20 -20 -20 -13 4 14 27 15 28 26 29 37 37 35 23 20 20 22 39 31 21
-20 -20 -20 -20 -20 -20 -20 -20 -20 -20 -20 -13 -20 -20 -11 18 34 30 25 26 33 25 19 24 18 23 28 25 22 20 22 35
-20 -20 -20 -20 -20 -20 -20 -20 -20 -20 -14 11 -7 -20 3 -1 30 32 34 33 38 34 34 26 23 28 29 28 29 24 33 38
-20 -20 -20 -20 -20 -20 -20 -20 -6 -15 0 -12 -7 -20 8 24 37 33 28 31 30 30 25 20 27 32 31 30 30 34 37 36

GFSFLT1_prec_radar_195.txt.gz
Reflectivity
-20 -20 -20 -20 -20 -20 -20 -20 -20 -20 -20 -20 -20 -20 -20 17 13 -9 17 24 11 -15 1 6 18 -17 13 -8 -6 20 -20 -20
-20 -20 -20 -20 -20 -20 -20 -20 -20 -20 -20 12 16 17 -20 -4 -20 17 15 -2 14 14 -7 -20 7 11 -10 3 4 5 -4 -20
-20 -20 -20 -20 -20 -20 -20 -20 -20 -20 -20 -20 -20 6 -17 9 13 19 19 18 18 15 18 26 10 4 -15 5 0 13 -18 -20
-20 -20 -20 -20 -20 -20 -20 -20 -20 -20 -20 -20 -20 -18 18 10 15 25 28 19 22 24 27 6 15 25 3 -11 -1 18 -0 -20
-20 -20 -20 -20 -20 -20 -20 -20 -20 -20 -20 -20 -20 -20 -20 -20 3 12 15 17 21 13 28 25 -15 24 10 17 -0 14 21 -13
-20 -20 -20 -20 -20 -20 -20 -20 -20 -20 -20 -20 -20 -20 -20 -20 -20 -20 13 13 26 25 24 24 23 26 -8 16 25 20 -7 14
-20 -20 -20 -20 -20 -20 -20 -20 -20 -20 -20 -20 -20 -20 -20 -20 -20 -20 -17 -10 12 4 22 25 29 13 30 -1 29 14 26 22
-20 -20 -20 -20 -20 -20 -20 -20 -20 -20 -20 -20 -20 -20 -20 -20 -20 -20 -20 -20 -20 -20 -10 6 27 26 31 31 11 12 32 11
-20 -20 -20 -20 -20 -20 -20 -20 -20 -20 -20 -20 -20 -20 -20 -20 -20 -20 -20 -20 -20 -20 2 -6 6 -2 22 36 23 8 24 30
-20 -20 -20 -20 -20 -20 -20 -20 -20 -20 -20 -20 -20 -20 -20 -20 -20 -20 -20 -20 -20 -20 4 9 11 9 6 27 26 28 -1 19
-20 -20 -20 -20 -20 -20 -20 -20 -20 -20 -20 -20 -20 -20 -20 -20 -20 -20 -20 -20 -20 -20 -4 6 10 8 6 20 32 16 37 18
-20 -20 -20 -20 -20 -20 -20 -20 -20 -20 -20 -20 -20 -20 -20 -20 -20 -20 -20 -20 -20 -20 -20 -20 -17 8 4 14 31 42 35 -0
-20 -20 -20 -20 -20 -20 -20 -20 -20 -20 -20 -20 -20 -20 5 10 -12 -20 -20 -20 -20 -20 -20 -20 -20 9 29 29 26 46 18 12
-20 -20 -20 -20 -20 -20 -20 -20 -20 -20 -20 -20 -20 -20 -20 -10 -12 -20 -20 -19 -20 -11 -19 -14 10 31 32 22 33 43 33 20
-20 -20 -20 -20 -20 -20 -20 -20 -20 -20 -20 -20 -20 -20 -7 6 3 -20 -20 -5 -16 -15 -9 5 29 33 27 39 33 38 41 27
-20 -20 -20 -20 -20 -20 -20 -20 -20 -20 -20 -20 -20 1 -5 10 -19 -20 -8 -18 -20 -1 -5 20 26 32 35 32 39 41 37 24
-20 -20 -20 -20 -20 -20 -20 -20 -20 -20 -20 -20 1 -20 6 -20 -20 -0 -3 11 28 -14 10 27 37 30 33 30 38 34 40 31
-20 -20 -20 -20 -20 -20 -20 -20 -20 -20 -20 -20 -20 -20 -20 -20 -3 6 4 26 26 1 14 12 27 27 32 35 30 32 29 24
-20 -20 -20 -20 -20 -20 -20 -20 -20 -20 -20 -20 -15 -20 -20 -18 4 17 27 30 21 10 9 22 31 31 40 36 40 34 31 29